[[{"header":{"parameterUnit":"m.s-1","parameterCategory":1,"la1":30.2991,"la2":30.254,"lo1":-89.0895,"lo2":-89.0444,"dy":0.0017,"dx":0.0017,"nx":28,"ny":28,"refTime":"2024-07-29T09:00:00:Z","depth":0,"parameterNumber":2,"parameterNumberName":"U-component_of_WINDS"},"data":[0,0,0,0,0,0,0,0,0,0,0,0,0,0,0,0,0,0,0,0,0,0,0,0,0,0,0,0,0,0,0,0,0,0,0,0,0,0,0,0,0,0,0,0,0,0,0,0,0,0,0,0,0,0,0,0,0,0,1.2497,1.2496,0,1.2488,1.2488,1.2488,1.2423,1.2421,1.2419,1.2418,1.2409,1.241,1.2412,0,0,0,0,0,0,0,0,0,0,0,0,0,1.2456,1.2457,1.2497,1.2496,1.2496,1.2488,1.2488,1.2488,1.2423,1.2421,1.2419,1.2417,1.2409,1.241,1.2412,0,0,0,0,0,0,0,0,0,0,0,0,0,1.2463,1.2457,1.2497,1.2463,1.246,1.2488,1.2488,1.2488,1.2423,1.2421,1.2418,1.2416,1.2408,1.241,1.2412,1.2472,0,0,1.2418,1.2419,0,0,0,0,0,0,0,0,1.2463,1.2465,1.2468,1.2465,1.2462,1.2454,1.247,1.2483,1.2424,1.2437,1.2418,1.2415,1.2426,1.2426,1.243,1.2472,1.2471,1.2418,1.2419,1.242,1.2421,0,0,0,0,0,0,0,1.2462,1.2465,1.2493,1.2468,1.2464,1.2448,1.2446,1.2472,1.2445,1.2436,1.2431,1.2431,1.2424,1.2428,1.2429,1.2471,1.2418,1.242,1.2421,1.2422,1.256,1.2562,0,0,0,0,0,0,1.2467,1.2465,1.2493,1.2493,1.2456,1.2451,1.2449,1.2459,1.2445,1.244,1.2433,1.2428,1.2426,1.2427,1.2429,1.2497,1.242,1.2422,1.2423,1.2557,1.2561,1.2563,0,0,0,0,0,0,1.2466,1.247,1.2494,1.2478,1.2479,1.2454,1.2466,1.246,1.2464,1.2443,1.2437,1.2443,1.2424,1.2426,1.2461,1.2496,1.2423,1.2424,1.2554,1.2558,1.2562,1.2634,0,0,0,0,0,0,1.2465,1.247,1.2493,1.2479,1.248,1.2527,1.2468,1.2462,1.2468,1.2461,1.245,1.2446,1.2423,1.2459,1.2463,1.2497,1.2426,1.2551,1.2556,1.2561,1.2628,1.264,1.265,0,0,0,0,0,1.2464,1.2514,1.2494,1.2498,1.2508,1.2529,1.253,1.2502,1.2471,1.2493,1.2479,1.2446,1.2492,1.2463,1.2467,1.2502,1.2549,1.2555,1.256,1.2624,1.2638,1.2649,0,0,0,0,0,0,1.2533,1.2511,1.2489,1.2536,1.2535,1.2518,1.2545,1.2518,1.2525,1.2519,1.2484,1.2482,1.2522,1.2516,1.2485,1.2559,1.2514,1.2521,1.2561,1.2574,1.2585,1.2585,1.2427,0,0,0,0,0,1.2554,1.2572,1.2552,1.2596,1.2596,1.2571,1.2579,1.2558,1.2555,1.2554,1.2542,1.2541,1.2554,1.2564,1.2576,1.2628,1.2624,1.2654,1.2664,1.2673,1.2679,1.2705,1.2717,1.2582,1.2582,1.2582,0,0,1.2596,1.2587,1.2601,1.2609,1.2606,1.2625,1.2571,1.2594,1.2608,1.2557,1.2589,1.2581,1.2577,1.2621,1.2639,1.2617,1.2716,1.268,1.2687,1.2688,1.2712,1.2725,1.2736,1.2586,1.2585,1.2585,0,0,1.2684,1.268,1.2714,1.2711,1.2707,1.269,1.2698,1.2685,1.2677,1.2709,1.2671,1.2687,1.2712,1.271,1.2713,1.2799,1.2769,1.2804,1.2859,1.2884,1.2895,1.2904,1.2934,1.2945,1.281,1.2811,1.2811,0,1.2738,1.2766,1.2735,1.2761,1.2765,1.272,1.2754,1.2753,1.2753,1.2757,1.2731,1.276,1.2755,1.2796,1.2817,1.2822,1.2829,1.2804,1.2896,1.2905,1.2913,1.2941,1.2952,1.2815,1.2814,1.2814,1.2813,0,1.2831,1.2851,1.288,1.288,1.2887,1.2918,1.2891,1.2903,1.2881,1.2866,1.2899,1.289,1.2899,1.2907,1.2886,1.2946,1.2932,1.2902,1.2856,1.293,1.2956,1.2966,1.2821,1.2819,1.2818,1.2817,0,0,1.2961,1.2944,1.2955,1.2953,1.2945,1.2959,1.2987,1.2995,1.3005,1.3006,1.3028,1.305,1.3022,1.3024,1.3003,1.3025,1.3093,1.2992,1.2992,1.301,1.3157,1.3178,1.3191,1.3073,1.3075,1.3077,1.3156,0,1.3044,1.309,1.3063,1.3113,1.313,1.3087,1.3111,1.3109,1.3096,1.3109,1.3095,1.311,1.3073,1.3074,1.3095,1.308,1.3122,1.3074,1.3092,1.3093,1.3093,1.3205,1.3227,1.3303,1.3166,1.3168,1.3169,0,1.3147,1.3151,1.3203,1.319,1.3196,1.3218,1.3222,1.3236,1.3231,1.322,1.3224,1.3196,1.3222,1.3179,1.3213,1.3182,1.3188,1.3182,1.3184,1.3183,1.3135,1.3206,1.3327,1.3337,1.3185,1.3184,1.3183,0,1.3234,1.3254,1.3286,1.3287,1.3273,1.3289,1.3284,1.3278,1.3284,1.3288,1.3292,1.3299,1.3303,1.331,1.3285,1.3256,1.3322,1.3277,1.3313,1.3314,1.3328,1.3327,1.345,1.3335,1.3335,1.3334,1.3334,0,1.3328,1.3361,1.3325,1.3346,1.3381,1.335,1.3385,1.3376,1.337,1.3387,1.3352,1.3369,1.3336,1.3349,1.333,1.3361,1.3364,1.3355,1.3349,1.3357,1.3358,1.336,1.3353,1.3337,1.3337,1.3336,1.3336,0,1.3431,1.3409,1.3442,1.3426,1.3422,1.3449,1.3435,1.3453,1.3438,1.346,1.3463,1.344,1.3454,1.343,1.3442,1.3429,1.3472,1.3459,1.3473,1.3469,1.3506,1.3502,1.3633,1.3648,1.3524,1.3526,1.3527,0,1.3492,1.3516,1.3502,1.3511,1.3508,1.3523,1.3529,1.3499,1.3507,1.3504,1.3522,1.3533,1.354,1.3564,1.3548,1.3557,1.3543,1.3588,1.3544,1.3551,1.3542,1.354,1.3542,1.3597,1.3598,1.3599,1.36,0,1.3602,1.3589,1.3599,1.3605,1.3613,1.3616,1.3617,1.3627,1.3595,1.3606,1.362,1.3625,1.3637,1.3648,1.3652,1.3647,1.3618,1.3615,1.3623,1.3631,1.3638,1.3633,1.3496,1.3611,1.361,1.361,1.3609,1.3608,1.3684,1.3703,1.3696,1.3708,1.3705,1.3707,1.3722,1.3709,1.372,1.3726,1.3709,1.3727,1.3721,1.3724,1.3722,1.3735,1.3715,1.3728,1.3731,1.3734,1.374,1.3637,1.3736,1.3736,1.3736,1.3735,1.3735,0,1.379,1.3783,1.3795,1.3797,1.3806,1.3779,1.3778,1.3788,1.3804,1.3801,1.3809,1.3824,1.3835,1.382,1.3828,1.3842,1.3829,1.3844,1.3842,1.3841,1.3758,1.3749,1.3855,1.3855,1.3855,1.3855,1.3855,1.3855,1.3846,1.3876,1.3863,1.3891,1.3884,1.3901,1.3903,1.3904,1.3902,1.392,1.3929,1.3919,1.3911,1.3919,1.3927,1.3922,1.3926,1.3947,1.3937,1.3859,1.3847,1.3836,1.3827,1.3948,1.3948,1.4019,1.402,1.402]},{"header":{"parameterUnit":"m.s-1","parameterCategory":1,"la1":30.2991,"la2":30.254,"lo1":-89.0895,"lo2":-89.0444,"dy":0.0017,"dx":0.0017,"nx":28,"ny":28,"refTime":"2024-07-29T09:00:00:Z","depth":0,"parameterNumber":3,"parameterNumberName":"V-component_of_WINDS"},"data":[0,0,0,0,0,0,0,0,0,0,0,0,0,0,0,0,0,0,0,0,0,0,0,0,0,0,0,0,0,0,0,0,0,0,0,0,0,0,0,0,0,0,0,0,0,0,0,0,0,0,0,0,0,0,0,0,0,0,3.002,3.002,0,3.0025,3.0025,3.0025,2.9953,2.9951,2.9949,2.9947,2.9951,2.9952,2.9954,0,0,0,0,0,0,0,0,0,0,0,0,0,2.9947,2.9949,3.002,3.002,3.002,3.0025,3.0025,3.0025,2.9953,2.9951,2.9948,2.9946,2.995,2.9952,2.9954,0,0,0,0,0,0,0,0,0,0,0,0,0,2.9968,2.9949,3.002,2.9985,2.9982,3.0025,3.0025,3.0025,2.9954,2.9951,2.9948,2.9945,2.9949,2.9952,2.9955,3.0031,0,0,2.9964,2.9965,0,0,0,0,0,0,0,0,2.9967,2.9971,2.999,2.9988,2.9984,2.9985,3.0,3.0027,2.9954,2.9964,2.9947,2.9944,2.9964,2.9966,2.9973,3.0032,3.0032,2.9964,2.9966,2.9967,2.9968,0,0,0,0,0,0,0,2.9965,2.997,3.0022,2.999,2.9987,2.9968,2.9968,3.0005,2.9981,2.9963,2.9958,2.996,2.9962,2.9971,2.9973,3.0032,2.9964,2.9966,2.9968,2.9969,3.0152,3.0155,0,0,0,0,0,0,2.9969,2.9969,3.0022,3.0022,2.9968,2.9972,2.9972,2.9988,2.998,2.9976,2.9962,2.9956,2.9967,2.9969,2.9973,3.006,2.9967,2.9969,2.9971,3.0149,3.0153,3.0156,0,0,0,0,0,0,2.9968,2.9974,3.0022,2.9994,2.9999,2.9976,2.9995,2.999,2.9998,2.9979,2.9974,2.9975,2.9965,2.9968,3.0017,3.0059,2.9971,2.9973,3.0145,3.015,3.0154,3.0238,0,0,0,0,0,0,2.9966,2.9974,3.0004,2.9996,3.0001,3.0067,2.9998,2.9992,3.0003,2.9995,2.999,2.9987,2.9963,3.0013,3.002,3.0062,2.9976,3.0141,3.0147,3.0153,3.0231,3.0245,3.0256,0,0,0,0,0,2.9964,3.0027,3.0005,3.0012,3.0037,3.007,3.0072,3.0044,3.0007,3.0036,3.0024,2.9987,3.0054,3.0019,3.0026,3.0069,3.0138,3.0146,3.0153,3.0225,3.0242,3.0256,0,0,0,0,0,0,3.004,3.0025,3.0001,3.0064,3.0069,3.0057,3.0093,3.0063,3.0078,3.007,3.0034,3.0033,3.0087,3.0083,3.0044,3.0142,3.009,3.0099,3.0143,3.0158,3.0171,3.017,2.9978,0,0,0,0,0,3.0064,3.0092,3.0078,3.0134,3.0138,3.0115,3.0128,3.0106,3.0109,3.0111,3.0102,3.0107,3.0128,3.0143,3.0163,3.0231,3.0228,3.0264,3.0277,3.0287,3.0295,3.0329,3.0345,3.0179,3.0179,3.0179,0,0,3.0114,3.011,3.0129,3.015,3.0151,3.018,3.0117,3.0151,3.0172,3.0116,3.0161,3.0155,3.0157,3.0216,3.0241,3.0214,3.034,3.0296,3.0305,3.0306,3.0338,3.0354,3.0368,3.0184,3.0183,3.0182,0,0,3.022,3.022,3.0266,3.0269,3.0271,3.0256,3.0267,3.0261,3.0255,3.03,3.0258,3.0282,3.0321,3.0324,3.033,3.0438,3.0404,3.0445,3.0511,3.0545,3.0558,3.0569,3.0606,3.0619,3.0453,3.0453,3.0454,0,3.0281,3.0324,3.0294,3.0331,3.034,3.0291,3.0338,3.0341,3.035,3.0357,3.0328,3.0375,3.0373,3.0431,3.0457,3.0465,3.0475,3.0445,3.0558,3.0569,3.0579,3.0614,3.0628,3.0458,3.0458,3.0457,3.0457,0,3.0399,3.0429,3.0467,3.0476,3.049,3.0532,3.0507,3.0525,3.0502,3.049,3.0536,3.0532,3.0549,3.0561,3.0539,3.0616,3.0599,3.0565,3.051,3.0601,3.0632,3.0645,3.0465,3.0464,3.0462,3.0461,0,0,3.0551,3.0544,3.0558,3.0561,3.0561,3.0583,3.0623,3.064,3.0655,3.0663,3.0694,3.0728,3.0696,3.0704,3.0682,3.0712,3.0795,3.0673,3.0673,3.0694,3.0878,3.0902,3.0918,3.0774,3.0776,3.0778,3.0877,0,3.0652,3.0718,3.0692,3.076,3.0787,3.0742,3.0776,3.0779,3.0768,3.0789,3.0778,3.0802,3.0759,3.0763,3.0791,3.0779,3.0831,3.0772,3.0801,3.0802,3.0799,3.0935,3.0961,3.1055,3.089,3.0892,3.0893,0,3.0778,3.0792,3.0862,3.0856,3.0867,3.0898,3.0911,3.0932,3.0935,3.0925,3.0934,3.0905,3.0942,3.089,3.094,3.09,3.0911,3.0907,3.091,3.091,3.0852,3.0937,3.1084,3.1097,3.0913,3.0911,3.091,0,3.088,3.0916,3.0962,3.0967,3.0962,3.0984,3.0983,3.0983,3.0995,3.1006,3.1013,3.103,3.1038,3.1051,3.1027,3.0992,3.108,3.1026,3.1072,3.1073,3.1091,3.109,3.124,3.1101,3.1101,3.1101,3.1101,0,3.0994,3.1039,3.1007,3.1036,3.1084,3.1055,3.1103,3.1097,3.1097,3.1123,3.1085,3.111,3.1078,3.11,3.1082,3.1125,3.113,3.1122,3.1117,3.1125,3.1125,3.1129,3.1121,3.1105,3.1104,3.1103,3.1102,0,3.1114,3.1096,3.1143,3.1135,3.1134,3.117,3.1162,3.1187,3.1175,3.1208,3.1214,3.1195,3.1219,3.1197,3.122,3.1207,3.1265,3.1251,3.1264,3.1259,3.1305,3.13,3.1461,3.148,3.1332,3.1333,3.1335,0,3.1187,3.1221,3.1216,3.1231,3.1232,3.1257,3.1269,3.1241,3.1255,3.1261,3.1285,3.1306,3.1321,3.1361,3.1348,3.1365,3.135,3.1406,3.1352,3.1359,3.1349,3.1346,3.1349,3.1416,3.1417,3.1419,3.142,0,3.1318,3.1308,3.1326,3.1342,3.1358,3.1369,3.1377,3.1391,3.1363,3.138,3.1404,3.1416,3.144,3.146,3.1473,3.1471,3.1441,3.1437,3.1448,3.1455,3.1461,3.1457,3.1291,3.1433,3.1432,3.1431,3.143,3.143,3.1416,3.1443,3.1444,3.1466,3.1469,3.1478,3.1501,3.1492,3.1512,3.1528,3.1511,3.154,3.1542,3.1556,3.1558,3.158,3.1557,3.1573,3.1577,3.1581,3.1587,3.146,3.1583,3.1582,3.1582,3.1582,3.1581,0,3.1543,3.1542,3.1562,3.1575,3.1592,3.1564,3.1571,3.1587,3.1613,3.1617,3.1633,3.166,3.168,3.167,3.1687,3.1706,3.1693,3.1712,3.1709,3.1709,3.1608,3.1595,3.1722,3.1722,3.1722,3.1722,3.1722,3.1722,3.1611,3.1654,3.1644,3.1689,3.1687,3.1715,3.1722,3.1729,3.1732,3.1764,3.1781,3.1774,3.1772,3.1789,3.1806,3.1802,3.181,3.1833,3.1825,3.173,3.1716,3.1703,3.1691,3.1836,3.1836,3.1923,3.1924,3.1925]}]]